Location: Del Amo
(33.8464°N, 118.2104°W)
Time: 01:31:38
(UTC+00:00)

SR - Pass Details

Date: 20 September 2024
Orbit: 578 x 855 km, 66.7° (Epoch: 02 October)

Event Time Altitude Azimuth Distance (km) Brightness Sun altitude
Rises 04:27:46 0° 343° (NNW) 2,987 ? -32.0°
Reaches altitude 10° 04:30:09 10° 352° (N) 2,116 ? -32.4°
Enters shadow 04:31:10 16° 359° (N) 1,776 ? -32.6°
Maximum altitude 04:34:36 36° 60° (ENE) 1,122 - -33.2°
Drops below altitude 10° 04:39:22 10° 126° (SE) 2,277 - -34.1°
Sets 04:42:01 0° 135° (SE) 3,246 - -34.6°
